QPF
0.01 0.01 0.01 0.01 0.01 0.01 0.01 0.01 0.01 0.01 0.01 0.01 0.01 0.02 0.01 0.01 0.01 0.01 0.01 0.01 0.01 0.01 0.01 0.01 0.01 0.01 0.01 0.02 0.02 0.02 0.03 0.03 0.03 0.03 0.03 0.04 0.05 0.07 0.07 0.06 0.05 0.05 0.04
0.01 0.01 0.01 0.01 0.01 0.01 0.01 0.01 0.01 0.01 0.00 0.00 0.01 0.01 0.01 0.00 0.01 0.01 0.01 0.01 0.01 0.01 0.01 0.01 0.01 0.01 0.01 0.02 0.02 0.02 0.03 0.03 0.03 0.03 0.03 0.04 0.04 0.05 0.07 0.09 0.08 0.06 0.05
0.01 0.01 0.01 0.01 0.01 0.00 0.00 0.00 0.00 0.00 0.00 0.00 0.00 0.00 0.00 0.00 0.00 0.01 0.01 0.01 0.01 0.01 0.02 0.02 0.02 0.02 0.02 0.02 0.02 0.02 0.02 0.03 0.03 0.03 0.04 0.04 0.04 0.05 0.06 0.07 0.07 0.06 0.05
0.00 0.00 0.01 0.00 0.00 0.00 0.00 0.00 0.00 0.00 0.00 0.00 0.00 0.00 0.00 0.00 0.01 0.01 0.01 0.01 0.01 0.02 0.02 0.02 0.02 0.03 0.03 0.03 0.03 0.02 0.03 0.03 0.04 0.04 0.04 0.05 0.05 0.06 0.07 0.07 0.06 0.05 0.04
0.00 0.00 0.00 0.00 0.00 0.00 0.00 0.00 0.00 0.00 0.00 0.00 0.00 0.00 0.00 0.00 0.01 0.01 0.01 0.01 0.02 0.02 0.03 0.03 0.02 0.03 0.03 0.04 0.04 0.04 0.03 0.04 0.04 0.04 0.04 0.04 0.04 0.05 0.06 0.06 0.06 0.05 0.04
0.00 0.00 0.00 0.00 0.00 0.00 0.00 0.00 0.00 0.00 0.00 0.00 0.00 0.00 0.00 0.00 0.00 0.01 0.01 0.01 0.02 0.02 0.02 0.02 0.02 0.02 0.02 0.03 0.04 0.04 0.04 0.04 0.04 0.04 0.04 0.04 0.03 0.03 0.04 0.05 0.06 0.06 0.05
0.00 0.00 0.00 0.00 0.00 0.00 0.00 0.00 0.00 0.00 0.00 0.00 0.00 0.00 0.00 0.00 0.00 0.01 0.01 0.01 0.01 0.02 0.02 0.02 0.01 0.01 0.02 0.02 0.02 0.03 0.03 0.03 0.04 0.04 0.04 0.03 0.03 0.03 0.04 0.04 0.05 0.05 0.04
0.00 0.00 0.00 0.00 0.00 0.00 0.00 0.00 0.00 0.00 0.00 0.00 0.00 0.00 0.00 0.00 0.00 0.00 0.01 0.01 0.01 0.01 0.02 0.02 0.02 0.01 0.01 0.02 0.02 0.02 0.02 0.02 0.02 0.02 0.03 0.03 0.03 0.03 0.04 0.04 0.05 0.05 0.04
0.01 0.00 0.00 0.00 0.00 0.00 0.00 0.00 0.00 0.00 0.00 0.00 0.00 0.00 0.00 0.00 0.01 0.00 0.01 0.00 0.01 0.01 0.01 0.01 0.01 0.01 0.02 0.02 0.02 0.02 0.02 0.02 0.02 0.02 0.02 0.03 0.03 0.04 0.04 0.04 0.05 0.06 0.05
0.01 0.01 0.00 0.00 0.00 0.00 0.00 0.00 0.00 0.01 0.01 0.01 0.01 0.00 0.00 0.00 0.00 0.00 0.01 0.01 0.01 0.01 0.01 0.01 0.01 0.01 0.01 0.01 0.01 0.02 0.02 0.02 0.02 0.02 0.02 0.02 0.02 0.02 0.03 0.03 0.03 0.04 0.04
0.01 0.01 0.01 0.01 0.01 0.01 0.01 0.01 0.01 0.01 0.01 0.01 0.01 0.00 0.00 0.00 0.00 0.01 0.01 0.01 0.01 0.01 0.01 0.01 0.01 0.01 0.01 0.02 0.02 0.02 0.02 0.03 0.03 0.03 0.02 0.02 0.02 0.03 0.02 0.02 0.02 0.03 0.03
0.01 0.01 0.01 0.01 0.01 0.01 0.01 0.01 0.01 0.01 0.01 0.01 0.01 0.01 0.01 0.01 0.01 0.01 0.01 0.01 0.01 0.01 0.01 0.01 0.01 0.01 0.01 0.01 0.02 0.02 0.02 0.03 0.03 0.03 0.03 0.03 0.02 0.03 0.03 0.02 0.02 0.03 0.03
0.00 0.00 0.00 0.00 0.00 0.01 0.01 0.01 0.01 0.01 0.01 0.01 0.01 0.01 0.01 0.01 0.01 0.01 0.01 0.01 0.01 0.01 0.01 0.01 0.01 0.01 0.01 0.01 0.02 0.02 0.02 0.02 0.02 0.03 0.02 0.02 0.03 0.03 0.03 0.03 0.03 0.02 0.03
0.00 0.00 0.00 0.00 0.00 0.00 0.00 0.00 0.00 0.00 0.00 0.00 0.00 0.00 0.00 0.00 0.01 0.01 0.01 0.01 0.01 0.01 0.01 0.01 0.01 0.01 0.01 0.01 0.02 0.02 0.02 0.02 0.03 0.03 0.03 0.03 0.03 0.03 0.03 0.03 0.03 0.03 0.03
0.00 0.00 0.00 0.00 0.00 0.00 0.00 0.00 0.00 0.00 0.00 0.00 0.00 0.00 0.00 0.00 0.00 0.01 0.01 0.01 0.01 0.01 0.01 0.01 0.01 0.02 0.02 0.02 0.02 0.02 0.02 0.03 0.03 0.04 0.04 0.04 0.04 0.03 0.03 0.04 0.04 0.04 0.04
0.00 0.00 0.00 0.00 0.00 0.00 0.00 0.00 0.00 0.00 0.00 0.00 0.00 0.00 0.00 0.00 0.00 0.00 0.01 0.01 0.01 0.01 0.01 0.01 0.01 0.02 0.02 0.02 0.03 0.03 0.03 0.03 0.04 0.04 0.04 0.04 0.04 0.04 0.04 0.04 0.04 0.04 0.04
0.00 0.00 0.00 0.00 0.00 0.00 0.00 0.00 0.00 0.00 0.00 0.00 0.00 0.00 0.00 0.00 0.00 0.00 0.00 0.01 0.01 0.01 0.01 0.01 0.01 0.01 0.02 0.02 0.03 0.03 0.03 0.03 0.03 0.04 0.04 0.04 0.04 0.04 0.04 0.04 0.04 0.04 0.05
0.00 0.00 0.00 0.00 0.00 0.00 0.00 0.00 0.00 0.00 0.00 0.00 0.00 0.00 0.00 0.00 0.00 0.00 0.00 0.01 0.01 0.01 0.01 0.01 0.01 0.01 0.01 0.02 0.02 0.02 0.02 0.02 0.03 0.03 0.03 0.03 0.03 0.03 0.03 0.03 0.03 0.04 0.05
0.00 0.00 0.00 0.00 0.00 0.00 0.00 0.00 0.00 0.00 0.00 0.00 0.00 0.00 0.00 0.00 0.00 0.00 0.00 0.01 0.01 0.01 0.01 0.01 0.01 0.01 0.01 0.02 0.02 0.02 0.02 0.02 0.02 0.02 0.02 0.02 0.02 0.02 0.02 0.02 0.02 0.03 0.03
0.00 0.00 0.00 0.00 0.00 0.00 0.00 0.00 0.00 0.00 0.00 0.00 0.00 0.00 0.00 0.00 0.00 0.00 0.00 0.01 0.01 0.01 0.01 0.01 0.01 0.01 0.01 0.02 0.02 0.02 0.02 0.02 0.02 0.02 0.02 0.02 0.02 0.03 0.03 0.03 0.02 0.03 0.03
0.00 0.00 0.00 0.00 0.00 0.00 0.00 0.00 0.00 0.00 0.00 0.00 0.00 0.00 0.00 0.00 0.00 0.00 0.00 0.00 0.01 0.01 0.01 0.01 0.01 0.01 0.01 0.02 0.02 0.02 0.02 0.02 0.02 0.02 0.02 0.02 0.02 0.03 0.03 0.03 0.03 0.03 0.03
0.00 0.00 0.00 0.00 0.00 0.00 0.00 0.00 0.00 0.00 0.00 0.00 0.00 0.00 0.00 0.00 0.00 0.00 0.00 0.00 0.01 0.01 0.01 0.01 0.01 0.01 0.02 0.02 0.02 0.02 0.02 0.02 0.02 0.02 0.03 0.02 0.02 0.02 0.02 0.03 0.03 0.03 0.03
0.00 0.00 0.00 0.00 0.00 0.00 0.00 0.00 0.00 0.00 0.00 0.00 0.00 0.00 0.00 0.00 0.00 0.00 0.01 0.01 0.01 0.01 0.01 0.01 0.01 0.01 0.02 0.02 0.02 0.02 0.03 0.02 0.02 0.02 0.03 0.03 0.02 0.02 0.02 0.03 0.03 0.03 0.03
0.01 0.01 0.01 0.00 0.00 0.01 0.01 0.00 0.00 0.00 0.00 0.00 0.00 0.00 0.00 0.00 0.00 0.00 0.00 0.01 0.01 0.01 0.01 0.01 0.01 0.01 0.02 0.02 0.02 0.02 0.03 0.03 0.03 0.03 0.03 0.03 0.02 0.02 0.02 0.02 0.03 0.03 0.03
0.00 0.01 0.01 0.01 0.01 0.01 0.01 0.01 0.00 0.00 0.00 0.00 0.00 0.00 0.00 0.00 0.00 0.00 0.00 0.00 0.01 0.01 0.01 0.01 0.01 0.01 0.01 0.02 0.02 0.02 0.03 0.03 0.04 0.04 0.04 0.03 0.03 0.02 0.02 0.03 0.03 0.03 0.03
0.00 0.00 0.01 0.01 0.01 0.01 0.01 0.01 0.00 0.00 0.00 0.00 0.00 0.00 0.00 0.00 0.00 0.00 0.00 0.01 0.01 0.01 0.01 0.01 0.01 0.01 0.01 0.02 0.02 0.03 0.03 0.03 0.03 0.04 0.04 0.04 0.03 0.02 0.03 0.03 0.03 0.03 0.03
MSLP
1019.15 1019.61 1020.04 1020.41 1020.68 1020.85 1020.92 1020.91 1020.85 1020.76 1020.67 1020.60 1020.54 1020.48 1020.40 1020.30 1020.15 1019.95 1019.72 1019.47 1019.23 1019.00 1018.82 1018.67 1018.54 1018.43 1018.30 1018.13 1017.88 1017.56 1017.14 1016.65 1016.09 1015.49 1014.87 1014.26 1013.67 1013.10 1012.56 1012.05 1011.56 1011.07 1010.59
1018.64 1019.12 1019.57 1019.96 1020.26 1020.46 1020.56 1020.58 1020.55 1020.49 1020.44 1020.40 1020.36 1020.32 1020.27 1020.18 1020.04 1019.86 1019.63 1019.38 1019.12 1018.88 1018.67 1018.50 1018.36 1018.24 1018.10 1017.93 1017.71 1017.42 1017.05 1016.61 1016.10 1015.55 1014.97 1014.38 1013.78 1013.20 1012.63 1012.07 1011.51 1010.96 1010.41
1018.09 1018.58 1019.04 1019.44 1019.75 1019.97 1020.10 1020.16 1020.17 1020.16 1020.15 1020.14 1020.14 1020.13 1020.09 1020.02 1019.90 1019.73 1019.51 1019.26 1019.01 1018.76 1018.53 1018.34 1018.17 1018.03 1017.88 1017.70 1017.48 1017.21 1016.87 1016.46 1015.99 1015.47 1014.92 1014.34 1013.76 1013.16 1012.55 1011.95 1011.34 1010.72 1010.11
1017.50 1017.99 1018.45 1018.85 1019.18 1019.41 1019.58 1019.68 1019.74 1019.78 1019.81 1019.84 1019.87 1019.89 1019.88 1019.83 1019.73 1019.57 1019.37 1019.14 1018.88 1018.63 1018.40 1018.19 1018.00 1017.82 1017.64 1017.45 1017.21 1016.93 1016.59 1016.20 1015.75 1015.25 1014.71 1014.15 1013.56 1012.95 1012.32 1011.68 1011.03 1010.37 1009.71
1016.92 1017.40 1017.85 1018.25 1018.58 1018.84 1019.04 1019.18 1019.29 1019.38 1019.46 1019.53 1019.59 1019.63 1019.64 1019.61 1019.52 1019.38 1019.20 1018.98 1018.74 1018.49 1018.26 1018.03 1017.82 1017.61 1017.39 1017.16 1016.89 1016.58 1016.23 1015.82 1015.37 1014.88 1014.35 1013.79 1013.20 1012.58 1011.95 1011.29 1010.62 1009.93 1009.25
1016.37 1016.84 1017.27 1017.67 1018.01 1018.29 1018.52 1018.70 1018.86 1018.99 1019.11 1019.21 1019.30 1019.36 1019.38 1019.35 1019.28 1019.15 1018.99 1018.78 1018.56 1018.32 1018.08 1017.85 1017.61 1017.36 1017.10 1016.82 1016.51 1016.16 1015.77 1015.34 1014.88 1014.38 1013.85 1013.30 1012.72 1012.11 1011.49 1010.84 1010.17 1009.49 1008.80
1015.90 1016.34 1016.76 1017.15 1017.50 1017.80 1018.05 1018.28 1018.47 1018.64 1018.78 1018.91 1019.01 1019.07 1019.09 1019.07 1019.00 1018.88 1018.73 1018.54 1018.33 1018.10 1017.86 1017.61 1017.34 1017.06 1016.75 1016.42 1016.05 1015.66 1015.23 1014.78 1014.30 1013.80 1013.28 1012.74 1012.18 1011.61 1011.01 1010.39 1009.75 1009.09 1008.43
1015.50 1015.93 1016.34 1016.72 1017.07 1017.38 1017.66 1017.91 1018.13 1018.32 1018.48 1018.61 1018.71 1018.77 1018.78 1018.76 1018.68 1018.57 1018.43 1018.25 1018.05 1017.83 1017.58 1017.31 1017.02 1016.70 1016.35 1015.96 1015.55 1015.11 1014.65 1014.18 1013.69 1013.20 1012.70 1012.20 1011.68 1011.14 1010.59 1010.01 1009.42 1008.80 1008.18
1015.19 1015.59 1015.99 1016.36 1016.71 1017.03 1017.32 1017.58 1017.81 1018.01 1018.18 1018.31 1018.40 1018.45 1018.45 1018.41 1018.34 1018.23 1018.09 1017.92 1017.72 1017.50 1017.25 1016.96 1016.64 1016.29 1015.90 1015.47 1015.02 1014.56 1014.08 1013.60 1013.13 1012.66 1012.20 1011.73 1011.26 1010.78 1010.28 1009.75 1009.21 1008.64 1008.05
1014.92 1015.31 1015.69 1016.05 1016.39 1016.71 1017.00 1017.27 1017.50 1017.70 1017.86 1017.98 1018.06 1018.09 1018.09 1018.04 1017.96 1017.86 1017.72 1017.56 1017.37 1017.14 1016.88 1016.58 1016.24 1015.86 1015.44 1014.99 1014.52 1014.05 1013.57 1013.11 1012.66 1012.22 1011.80 1011.38 1010.96 1010.53 1010.08 1009.60 1009.09 1008.56 1008.00
1014.66 1015.03 1015.40 1015.75 1016.08 1016.38 1016.67 1016.93 1017.15 1017.34 1017.49 1017.60 1017.67 1017.69 1017.68 1017.64 1017.56 1017.46 1017.33 1017.18 1016.99 1016.77 1016.51 1016.20 1015.84 1015.44 1015.01 1014.55 1014.08 1013.61 1013.16 1012.72 1012.31 1011.91 1011.53 1011.16 1010.78 1010.38 1009.96 1009.50 1009.01 1008.50 1007.95
1014.41 1014.76 1015.10 1015.42 1015.73 1016.02 1016.29 1016.53 1016.74 1016.92 1017.06 1017.16 1017.22 1017.25 1017.24 1017.20 1017.13 1017.05 1016.93 1016.79 1016.61 1016.40 1016.13 1015.82 1015.47 1015.07 1014.64 1014.19 1013.73 1013.29 1012.86 1012.46 1012.08 1011.72 1011.37 1011.02 1010.65 1010.27 1009.84 1009.39 1008.89 1008.36 1007.81
1014.14 1014.46 1014.77 1015.07 1015.36 1015.62 1015.86 1016.08 1016.28 1016.44 1016.57 1016.66 1016.72 1016.75 1016.75 1016.73 1016.69 1016.61 1016.52 1016.40 1016.23 1016.03 1015.77 1015.47 1015.12 1014.74 1014.32 1013.90 1013.47 1013.05 1012.66 1012.28 1011.93 1011.59 1011.25 1010.90 1010.53 1010.12 1009.67 1009.17 1008.64 1008.07 1007.48
1013.86 1014.15 1014.43 1014.70 1014.95 1015.18 1015.40 1015.60 1015.77 1015.92 1016.04 1016.13 1016.19 1016.23 1016.25 1016.24 1016.22 1016.17 1016.09 1015.99 1015.85 1015.66 1015.42 1015.14 1014.81 1014.45 1014.06 1013.67 1013.27 1012.89 1012.52 1012.16 1011.82 1011.48 1011.13 1010.75 1010.33 1009.87 1009.35 1008.80 1008.20 1007.57 1006.93
1013.59 1013.85 1014.09 1014.32 1014.54 1014.74 1014.93 1015.10 1015.25 1015.39 1015.50 1015.59 1015.65 1015.70 1015.73 1015.74 1015.73 1015.70 1015.65 1015.57 1015.45 1015.28 1015.07 1014.81 1014.52 1014.19 1013.83 1013.47 1013.11 1012.75 1012.39 1012.05 1011.69 1011.32 1010.93 1010.49 1010.00 1009.46 1008.87 1008.23 1007.55 1006.86 1006.15
1013.33 1013.55 1013.76 1013.95 1014.14 1014.31 1014.48 1014.63 1014.76 1014.88 1014.98 1015.07 1015.13 1015.18 1015.22 1015.24 1015.24 1015.23 1015.19 1015.13 1015.03 1014.88 1014.70 1014.48 1014.22 1013.93 1013.61 1013.28 1012.94 1012.59 1012.24 1011.88 1011.49 1011.08 1010.62 1010.10 1009.53 1008.90 1008.21 1007.48 1006.73 1005.95 1005.18
1013.07 1013.26 1013.43 1013.60 1013.76 1013.91 1014.05 1014.18 1014.30 1014.41 1014.50 1014.57 1014.63 1014.68 1014.72 1014.74 1014.75 1014.75 1014.72 1014.67 1014.59 1014.47 1014.32 1014.13 1013.90 1013.65 1013.37 1013.06 1012.74 1012.40 1012.03 1011.64 1011.20 1010.73 1010.19 1009.58 1008.92 1008.19 1007.42 1006.61 1005.77 1004.93 1004.11
1012.79 1012.94 1013.09 1013.24 1013.38 1013.52 1013.64 1013.76 1013.86 1013.96 1014.03 1014.10 1014.15 1014.19 1014.22 1014.24 1014.25 1014.25 1014.24 1014.20 1014.14 1014.05 1013.92 1013.77 1013.57 1013.35 1013.09 1012.81 1012.49 1012.14 1011.75 1011.31 1010.82 1010.27 1009.65 1008.96 1008.21 1007.40 1006.54 1005.66 1004.76 1003.87 1002.99
1012.44 1012.57 1012.71 1012.84 1012.97 1013.09 1013.21 1013.32 1013.41 1013.49 1013.55 1013.61 1013.65 1013.68 1013.71 1013.73 1013.74 1013.75 1013.74 1013.72 1013.68 1013.61 1013.52 1013.39 1013.23 1013.03 1012.79 1012.51 1012.18 1011.81 1011.39 1010.90 1010.34 1009.72 1009.03 1008.26 1007.44 1006.56 1005.64 1004.70 1003.75 1002.81 1001.89
1011.98 1012.10 1012.22 1012.35 1012.47 1012.59 1012.70 1012.80 1012.88 1012.95 1013.01 1013.05 1013.09 1013.12 1013.15 1013.17 1013.19 1013.21 1013.22 1013.22 1013.21 1013.17 1013.10 1013.00 1012.86 1012.68 1012.45 1012.16 1011.82 1011.42 1010.95 1010.41 1009.79 1009.11 1008.35 1007.52 1006.63 1005.70 1004.74 1003.76 1002.77 1001.80 1000.83
1011.39 1011.50 1011.61 1011.73 1011.85 1011.96 1012.07 1012.15 1012.23 1012.29 1012.34 1012.39 1012.42 1012.46 1012.50 1012.54 1012.59 1012.63 1012.67 1012.70 1012.72 1012.71 1012.67 1012.60 1012.47 1012.30 1012.06 1011.76 1011.40 1010.96 1010.44 1009.85 1009.18 1008.44 1007.62 1006.75 1005.82 1004.86 1003.87 1002.86 1001.84 1000.82 999.81
1010.66 1010.76 1010.87 1010.98 1011.09 1011.19 1011.28 1011.35 1011.42 1011.47 1011.52 1011.57 1011.62 1011.67 1011.74 1011.81 1011.89 1011.98 1012.07 1012.14 1012.20 1012.23 1012.22 1012.16 1012.05 1011.87 1011.63 1011.30 1010.90 1010.42 1009.86 1009.22 1008.50 1007.72 1006.87 1005.96 1005.01 1004.03 1003.02 1001.99 1000.94 999.89 998.83
1009.83 1009.91 1010.00 1010.10 1010.19 1010.26 1010.33 1010.39 1010.44 1010.48 1010.53 1010.58 1010.65 1010.74 1010.85 1010.97 1011.11 1011.25 1011.39 1011.52 1011.63 1011.70 1011.72 1011.68 1011.57 1011.38 1011.12 1010.77 1010.33 1009.81 1009.20 1008.52 1007.77 1006.96 1006.09 1005.17 1004.21 1003.22 1002.20 1001.15 1000.09 998.99 997.88
1008.92 1008.98 1009.05 1009.12 1009.17 1009.22 1009.26 1009.29 1009.31 1009.35 1009.40 1009.46 1009.56 1009.69 1009.85 1010.03 1010.24 1010.45 1010.66 1010.85 1011.00 1011.11 1011.16 1011.13 1011.02 1010.83 1010.54 1010.16 1009.69 1009.13 1008.49 1007.78 1007.01 1006.18 1005.30 1004.38 1003.43 1002.44 1001.42 1000.37 999.28 998.15 996.97
1007.98 1008.01 1008.05 1008.09 1008.10 1008.11 1008.11 1008.10 1008.10 1008.12 1008.17 1008.26 1008.39 1008.56 1008.78 1009.03 1009.31 1009.59 1009.87 1010.12 1010.33 1010.47 1010.54 1010.53 1010.41 1010.20 1009.89 1009.48 1008.98 1008.39 1007.73 1007.00 1006.22 1005.40 1004.53 1003.63 1002.69 1001.72 1000.71 999.66 998.55 997.39 996.16
1007.04 1007.04 1007.05 1007.04 1007.01 1006.97 1006.92 1006.88 1006.86 1006.87 1006.92 1007.03 1007.20 1007.42 1007.70 1008.02 1008.36 1008.72 1009.06 1009.37 1009.62 1009.80 1009.89 1009.87 1009.76 1009.53 1009.20 1008.76 1008.24 1007.63 1006.96 1006.23 1005.46 1004.65 1003.81 1002.94 1002.04 1001.09 1000.11 999.06 997.96 996.77 995.52
Thickness
5540 5538 5537 5535 5535 5534 5533 5532 5531 5530 5530 5529 5528 5528 5527 5526 5526 5526 5525 5525 5525 5524 5523 5522 5521 5520 5519 5517 5516 5516 5516 5517 5520 5523 5523 5524 5525 5525 5525 5525 5526 5528 5530
5534 5532 5530 5528 5527 5526 5525 5524 5523 5523 5522 5521 5521 5520 5519 5518 5517 5517 5517 5516 5516 5515 5514 5512 5511 5510 5508 5507 5506 5505 5506 5507 5508 5510 5511 5511 5512 5513 5514 5514 5514 5516 5517
5527 5524 5522 5521 5520 5519 5518 5517 5516 5515 5514 5513 5512 5511 5511 5510 5509 5508 5508 5507 5506 5505 5504 5503 5501 5499 5498 5496 5495 5496 5496 5497 5497 5498 5500 5500 5500 5500 5501 5501 5501 5503 5504
5520 5518 5516 5514 5513 5512 5511 5509 5508 5507 5506 5505 5504 5503 5502 5501 5501 5500 5499 5498 5497 5496 5495 5494 5492 5490 5488 5487 5486 5486 5487 5486 5486 5487 5489 5488 5488 5488 5488 5488 5490 5490 5491
5513 5511 5510 5508 5507 5505 5503 5502 5500 5499 5498 5497 5496 5495 5494 5493 5492 5491 5490 5489 5488 5487 5486 5484 5483 5481 5480 5478 5478 5477 5477 5476 5476 5477 5478 5477 5477 5476 5476 5477 5477 5479 5479
5507 5505 5504 5502 5500 5498 5496 5494 5492 5491 5489 5488 5487 5486 5485 5485 5483 5482 5481 5480 5479 5478 5477 5475 5474 5472 5471 5471 5470 5469 5468 5467 5467 5467 5467 5467 5466 5465 5465 5464 5463 5464 5467
5501 5499 5497 5495 5493 5491 5489 5487 5485 5483 5481 5480 5479 5478 5476 5475 5474 5473 5472 5470 5469 5468 5467 5466 5465 5464 5462 5462 5461 5461 5459 5458 5458 5457 5457 5457 5456 5455 5454 5453 5452 5451 5453
5495 5493 5491 5489 5486 5484 5481 5479 5477 5476 5474 5472 5471 5470 5468 5467 5466 5464 5463 5461 5460 5459 5457 5456 5455 5454 5453 5452 5452 5451 5450 5449 5448 5448 5447 5447 5446 5445 5444 5443 5442 5441 5441
5489 5487 5485 5483 5481 5478 5475 5472 5470 5468 5466 5465 5463 5462 5460 5458 5457 5455 5453 5452 5450 5448 5447 5446 5444 5444 5444 5443 5442 5441 5441 5440 5439 5438 5438 5437 5437 5435 5434 5432 5430 5429 5430
5483 5482 5480 5477 5474 5471 5468 5466 5463 5461 5459 5457 5455 5453 5452 5449 5448 5446 5444 5441 5440 5438 5437 5435 5434 5433 5433 5432 5431 5430 5430 5429 5428 5428 5428 5428 5426 5425 5422 5420 5419 5417 5417
5477 5475 5473 5470 5468 5465 5461 5458 5455 5453 5450 5448 5446 5444 5442 5440 5438 5436 5434 5430 5428 5427 5426 5425 5423 5423 5422 5421 5420 5419 5419 5418 5418 5418 5418 5417 5416 5414 5411 5409 5408 5406 5405
5470 5468 5465 5463 5460 5458 5454 5450 5447 5444 5441 5439 5437 5434 5432 5430 5428 5426 5424 5421 5419 5417 5415 5414 5413 5412 5412 5411 5410 5410 5410 5408 5407 5406 5406 5405 5404 5403 5401 5400 5398 5396 5395
5462 5460 5457 5455 5452 5449 5446 5442 5438 5435 5432 5430 5427 5424 5422 5420 5417 5416 5413 5411 5409 5407 5405 5404 5403 5402 5401 5400 5400 5400 5399 5397 5395 5394 5394 5392 5391 5390 5390 5390 5389 5388 5387
5454 5452 5449 5446 5443 5440 5437 5434 5431 5428 5424 5421 5418 5415 5413 5410 5407 5405 5403 5401 5399 5397 5395 5394 5393 5392 5391 5390 5389 5388 5387 5385 5384 5383 5382 5381 5380 5379 5378 5378 5378 5378 5378
5447 5444 5441 5438 5435 5432 5429 5426 5424 5421 5417 5414 5411 5407 5403 5401 5399 5397 5393 5391 5389 5387 5386 5384 5382 5380 5379 5378 5377 5376 5375 5374 5372 5372 5371 5370 5369 5367 5366 5366 5366 5366 5366
5439 5437 5434 5430 5427 5424 5420 5418 5416 5412 5410 5407 5404 5400 5397 5394 5392 5389 5386 5383 5381 5379 5377 5374 5372 5370 5368 5366 5365 5364 5362 5361 5360 5359 5358 5357 5356 5356 5355 5355 5355 5355 5356
5433 5430 5426 5423 5420 5416 5412 5409 5406 5404 5400 5398 5395 5392 5388 5386 5383 5381 5378 5376 5373 5371 5367 5365 5362 5360 5357 5355 5353 5351 5350 5349 5348 5347 5346 5345 5344 5344 5344 5344 5345 5345 5346
5426 5423 5420 5416 5412 5408 5404 5401 5397 5394 5392 5389 5387 5384 5382 5379 5376 5373 5371 5368 5364 5362 5358 5356 5353 5350 5347 5345 5342 5340 5338 5337 5336 5335 5334 5333 5332 5332 5333 5334 5335 5335 5336
5419 5415 5412 5408 5404 5400 5397 5393 5389 5386 5384 5381 5379 5376 5374 5371 5368 5365 5362 5358 5355 5353 5350 5347 5344 5341 5338 5335 5332 5330 5328 5326 5325 5324 5323 5323 5322 5322 5323 5324 5325 5327 5328
5411 5409 5405 5401 5397 5393 5389 5385 5382 5379 5376 5373 5371 5368 5365 5362 5359 5357 5354 5351 5348 5345 5342 5339 5336 5332 5329 5326 5323 5320 5318 5316 5314 5313 5312 5312 5312 5312 5314 5315 5316 5318 5319
5404 5400 5398 5393 5389 5385 5381 5377 5374 5371 5368 5366 5363 5361 5359 5355 5352 5349 5346 5344 5341 5337 5334 5331 5327 5324 5321 5317 5314 5312 5309 5307 5305 5304 5303 5303 5303 5303 5304 5306 5307 5309 5310
5395 5392 5388 5385 5381 5377 5374 5370 5367 5364 5361 5358 5356 5353 5352 5347 5344 5341 5339 5337 5333 5330 5327 5323 5320 5317 5313 5310 5307 5304 5301 5299 5298 5296 5295 5295 5295 5295 5296 5298 5300 5301 5303
5387 5384 5380 5377 5373 5371 5367 5362 5359 5356 5354 5351 5348 5346 5343 5340 5336 5334 5331 5329 5325 5322 5319 5315 5312 5309 5306 5303 5300 5297 5295 5293 5291 5290 5289 5288 5288 5289 5290 5291 5292 5294 5296
5379 5375 5372 5369 5366 5362 5359 5355 5352 5349 5346 5343 5341 5338 5335 5332 5329 5326 5323 5320 5317 5314 5312 5309 5306 5303 5300 5297 5295 5292 5290 5288 5286 5285 5284 5283 5283 5283 5284 5285 5286 5288 5290
5371 5368 5365 5361 5358 5355 5351 5348 5345 5342 5339 5336 5333 5330 5327 5324 5321 5319 5316 5313 5310 5308 5305 5302 5300 5297 5294 5292 5290 5287 5286 5284 5282 5281 5280 5280 5279 5279 5279 5279 5281 5282 5284
5364 5361 5358 5354 5351 5347 5344 5341 5338 5335 5332 5330 5327 5323 5320 5317 5315 5312 5309 5307 5304 5302 5299 5297 5294 5292 5289 5287 5285 5284 5282 5280 5279 5278 5276 5276 5276 5276 5276 5276 5277 5278 5279